Location: Zürich
(47.3769°N, 8.5417°E)
Time: 10:08:51
(UTC+02:00)

ISS - Pass Details

Date: 23 May 2021
Orbit: 417 x 422 km, 51.6° (Epoch: 13 June)

Event Time Altitude Azimuth Distance (km) Brightness Sun altitude
Rises 00:33:30 0° 294° (WNW) 2,369 0.6 -21.2°
Reaches altitude 10° 00:35:36 10° 294° (WNW) 1,503 -0.5 -21.2°
Enters shadow 00:38:20 55° 294° (WNW) 509 -3.3 -21.3°
